"Pseudo-MPEC" for P10OMdx

Created 2019 Jun 14 14:08:29 UT using Find_Orb

Click here for an explanation of pseudo-MPECs

 
 Astrometry: 
     P10OMdx  C2019 06 07jL59\dZmPS.u5YopIsZ:;E$w(AstrometryNSD?khkZ\Nxxbk(oTF51
     P10OMdx  C2019 06 07$*3MU6redacted;F5*Zclick.m\G:Ul]GL?OJqkphereyaJWE7*MF51
     P10OMdx  C2019 06 07+5WGJe:f;for[W-XY7a^.STanX?9oI:vT)-USrJtNeU`MMr,ZD3RF51
     P10OMdx  C2019 06 07g'0`@Yd4/rNKiRE==TWj[PQydO%w(GexplanationXlaRKA5x_R0F51

Station data:
(F51) Pan-STARRS 1, Haleakala  (N20.707235 W156.255910)  US/Hawaii.
   Observers N. Primak, A. Schultz, S. Watters, J. Thiel, T. Goggia. Measurer
   PS1 Science Consortium. 1.8-m Ritchey-Chrétien + CCD.

Orbital elements:  P10OMdx
   Perihelion 2019 Apr 25.879521 +/- 77.9 TT = 21:06:30 (JD 2458599.379521)
Epoch 2019 Jun  8.0 TT = JDT 2458642.5   Earth MOID: 0.4054   Ma: 0.0230
M  20.27206374 +/- 80               (J2000 ecliptic)          AutoNEOCP
n   0.47012613 +/- 0.509            Peri.  130.09900 +/- 100
a   1.63804736 +/- 1.18             Node   113.75119 +/- 30
e   0.1742379 +/- 0.242             Incl.   52.15752 +/- 29
P   2.10/765.74d           H 20.7   G  0.15   U 12.3  SR
q 1.35263739 +/- 0.374    Q 1.92345733 +/- 25.4
From 4 observations 2019 June 7 (57.1 min); mean residual 0".03
Residuals in arcseconds: 
190607 F51  .03+  .01-    190607 F51  .03-  .03+    
190607 F51  .03-  .00     190607 F51  .03+  .02-    

Ephemerides (geocentric):
Date (UTC) HH   RA              Dec         delta   r     elong  mag " sig PA
---- -- -- --  -------------   -----------  ------ ------ -----  --- ---- ---
2019 06 14 14  21 08 00.089   +15 42 05.83  .61782 1.3862 113.9 22.0  60d  16
2019 06 14 15  21 07 59.528   +15 40 17.00  .61738 1.3862 113.9 22.0  60d  16
2019 06 14 16  21 07 58.962   +15 38 27.97  .61694 1.3863 114.0 22.0  60d  16
2019 06 14 17  21 07 58.389   +15 36 38.73  .61650 1.3864 114.0 22.0  60d  16
2019 06 14 18  21 07 57.810   +15 34 49.28  .61606 1.3864 114.1 22.0  60d  16
2019 06 14 19  21 07 57.226   +15 32 59.62  .61562 1.3865 114.2 22.0  60d  15
2019 06 14 20  21 07 56.636   +15 31 09.76  .61518 1.3865 114.2 21.9  60d  15
2019 06 14 21  21 07 56.040   +15 29 19.68  .61474 1.3866 114.3 21.9  60d  15
2019 06 14 22  21 07 55.438   +15 27 29.39  .61431 1.3866 114.3 21.9  60d  15
2019 06 14 23  21 07 54.831   +15 25 38.90  .61387 1.3867 114.4 21.9  60d  15
2019 06 15 00  21 07 54.217   +15 23 48.19  .61343 1.3867 114.4 21.9  60d  15
2019 06 15 01  21 07 53.598   +15 21 57.27  .61299 1.3868 114.5 21.9  60d  15
2019 06 15 02  21 07 52.972   +15 20 06.14  .61256 1.3868 114.5 21.9  60d  15
2019 06 15 03  21 07 52.341   +15 18 14.80  .61212 1.3869 114.6 21.9  60d  15
2019 06 15 04  21 07 51.704   +15 16 23.24  .61168 1.3870 114.6 21.9  61d  15
2019 06 15 05  21 07 51.061   +15 14 31.47  .61124 1.3870 114.7 21.9  61d  15
2019 06 15 06  21 07 50.412   +15 12 39.49  .61081 1.3871 114.7 21.9  62d  15
2019 06 15 07  21 07 49.758   +15 10 47.30  .61037 1.3871 114.8 21.9  62d  15
2019 06 15 08  21 07 49.097   +15 08 54.89  .60993 1.3872 114.8 21.9  62d  15
2019 06 15 09  21 07 48.430   +15 07 02.27  .60950 1.3872 114.9 21.9  62d  15
2019 06 15 10  21 07 47.758   +15 05 09.43  .60906 1.3873 114.9 21.9  62d  15
2019 06 15 11  21 07 47.079   +15 03 16.38  .60863 1.3873 115.0 21.9  62d  15
2019 06 15 12  21 07 46.395   +15 01 23.11  .60819 1.3874 115.1 21.9  62d  15
2019 06 15 13  21 07 45.705   +14 59 29.63  .60776 1.3874 115.1 21.9  62d  15
2019 06 15 14  21 07 45.008   +14 57 35.93  .60732 1.3875 115.2 21.9  62d  14
2019 06 15 15  21 07 44.306   +14 55 42.01  .60689 1.3876 115.2 21.9  62d  14
2019 06 15 16  21 07 43.598   +14 53 47.88  .60645 1.3876 115.3 21.9  62d  14
2019 06 15 17  21 07 42.883   +14 51 53.53  .60602 1.3877 115.3 21.9  62d  14
2019 06 15 18  21 07 42.163   +14 49 58.96  .60558 1.3877 115.4 21.9  62d  14
2019 06 15 19  21 07 41.437   +14 48 04.17  .60515 1.3878 115.4 21.9  62d  14
2019 06 15 20  21 07 40.705   +14 46 09.17  .60471 1.3878 115.5 21.9  62d  14
2019 06 15 21  21 07 39.966   +14 44 13.95  .60428 1.3879 115.5 21.9  62d  14
2019 06 15 22  21 07 39.222   +14 42 18.50  .60385 1.3879 115.6 21.9  62d  14
2019 06 15 23  21 07 38.472   +14 40 22.84  .60341 1.3880 115.6 21.9  62d  14
2019 06 16 00  21 07 37.715   +14 38 26.96  .60298 1.3881 115.7 21.9  62d  14
2019 06 16 01  21 07 36.953   +14 36 30.86  .60255 1.3881 115.8 21.9  62d  14
2019 06 16 02  21 07 36.184   +14 34 34.53  .60212 1.3882 115.8 21.9  62d  14
2019 06 16 03  21 07 35.410   +14 32 37.99  .60168 1.3882 115.9 21.9  63d  15
2019 06 16 04  21 07 34.629   +14 30 41.22  .60125 1.3883 115.9 21.9  64d  15
2019 06 16 05  21 07 33.842   +14 28 44.23  .60082 1.3883 116.0 21.9  64d  15
2019 06 16 06  21 07 33.050   +14 26 47.02  .60039 1.3884 116.0 21.9  64d  14
2019 06 16 07  21 07 32.251   +14 24 49.59  .59996 1.3884 116.1 21.9  64d  14
2019 06 16 08  21 07 31.446   +14 22 51.93  .59952 1.3885 116.1 21.9  64d  14
2019 06 16 09  21 07 30.635   +14 20 54.05  .59909 1.3886 116.2 21.9  64d  14
2019 06 16 10  21 07 29.818   +14 18 55.94  .59866 1.3886 116.3 21.9  64d  14
2019 06 16 11  21 07 28.994   +14 16 57.61  .59823 1.3887 116.3 21.9  64d  14
2019 06 16 12  21 07 28.165   +14 14 59.06  .59780 1.3887 116.4 21.9  64d  14
2019 06 16 13  21 07 27.329   +14 13 00.28  .59737 1.3888 116.4 21.9  64d  14